When you browse on this site, cookies collect data to enhance your experience and personalize the content and advertising you see.
Visit our Privacy Policy to learn more. By continuing to use the site, you agree to this use of cookies and data.
  • In Lithuania
  • List of Countries
  • For 7 days
  • Water Temperature
  • Weather Map
  • Weather Widgets
  • user-avatar
    Login

    Hourly Weather Salzburg

    Today, 22 September, Sunday

    Time Temperature Precipitation Wind Pressure Humidity
    00:00 +4°C° 0 mm 3 mps 627 mmHg 82%
    01:00 +4°C° 0 mm 3 mps 627 mmHg 87%
    02:00 +4°C° 0 mm 3 mps 626 mmHg 86%
    03:00 +5°C° 0 mm 2 mps 626 mmHg 85%
    04:00 +5°C° 0 mm 2 mps 626 mmHg 84%
    05:00 +6°C° 0 mm 2 mps 626 mmHg 82%
    06:00 +6°C° 0 mm 2 mps 626 mmHg 80%
    07:00 +7°C° 0 mm 2 mps 627 mmHg 74%
    08:00 +9°C° 0 mm 2 mps 627 mmHg 67%
    09:00 +13°C° 0 mm 2 mps 628 mmHg 59%
    10:00 +15°C° 0 mm 1 mps 628 mmHg 52%
    11:00 +16°C° 0 mm 1 mps 628 mmHg 51%
    12:00 +18°C° 0 mm 1 mps 628 mmHg 50%
    13:00 +18°C° 0 mm 1 mps 628 mmHg 49%
    14:00 +18°C° 0 mm 1 mps 628 mmHg 53%
    15:00 +18°C° 0 mm 1 mps 628 mmHg 57%
    16:00 +16°C° 0 mm 1 mps 627 mmHg 61%
    17:00 +14°C° 0 mm 1 mps 627 mmHg 69%
    18:00 +12°C° 0 mm 1 mps 626 mmHg 77%
    19:00 +10°C° 0 mm 1 mps 625 mmHg 85%
    20:00 +10°C° 0 mm 1 mps 625 mmHg 84%
    21:00 +9°C° 0 mm 1 mps 625 mmHg 83%
    22:00 +8°C° 0 mm 2 mps 625 mmHg 83%
    23:00 +8°C° 0 mm 2 mps 625 mmHg 82%

    Tomorrow, 23 September, Monday

    Time Temperature Precipitation Wind Pressure Humidity
    00:00 +8°C° 0 mm 2 mps 625 mmHg 82%
    01:00 +8°C° 0 mm 2 mps 624 mmHg 81%
    02:00 +8°C° 0 mm 1 mps 624 mmHg 82%
    03:00 +8°C° 0 mm 1 mps 624 mmHg 82%
    04:00 +8°C° 0 mm 1 mps 624 mmHg 82%
    05:00 +8°C° 0 mm 1 mps 624 mmHg 83%
    06:00 +8°C° 0 mm 1 mps 625 mmHg 83%
    07:00 +9°C° 0 mm 1 mps 625 mmHg 84%
    08:00 +9°C° 0.3 mm 1 mps 625 mmHg 87%
    09:00 +9°C° 0.3 mm 1 mps 625 mmHg 90%
    10:00 +9°C° 0.3 mm 1 mps 626 mmHg 93%
    11:00 +9°C° 1.2 mm 1 mps 625 mmHg 95%
    12:00 +8°C° 1.2 mm 1 mps 625 mmHg 96%
    13:00 +7°C° 1.2 mm 2 mps 625 mmHg 98%
    14:00 +6°C° 1.5 mm 2 mps 625 mmHg 98%
    15:00 +7°C° 1.5 mm 1 mps 625 mmHg 98%
    16:00 +7°C° 1.5 mm 1 mps 625 mmHg 98%
    17:00 +6°C° 0.6 mm 1 mps 626 mmHg 98%
    18:00 +6°C° 0.6 mm 1 mps 626 mmHg 98%
    19:00 +6°C° 0.6 mm 1 mps 626 mmHg 98%
    20:00 +6°C° 0.1 mm 1 mps 626 mmHg 98%
    21:00 +6°C° 0.1 mm 1 mps 626 mmHg 98%
    22:00 +6°C° 0.1 mm 1 mps 627 mmHg 98%
    23:00 +6°C° 0.1 mm 1 mps 627 mmHg 97%

    Day after tomorrow, 24 September, Tuesday

    Time Temperature Precipitation Wind Pressure Humidity
    00:00 +5°C° 0.1 mm 0 mps 626 mmHg 97%
    01:00 +5°C° 0.1 mm 0 mps 626 mmHg 97%
    02:00 +4°C° 0 mm 0 mps 626 mmHg 97%
    03:00 +4°C° 0 mm 0 mps 626 mmHg 96%
    04:00 +3°C° 0 mm 0 mps 625 mmHg 96%
    05:00 +5°C° 0 mm 1 mps 625 mmHg 96%
    06:00 +5°C° 0 mm 1 mps 625 mmHg 95%
    07:00 +5°C° 0 mm 1 mps 625 mmHg 95%
    08:00 +7°C° 0 mm 1 mps 626 mmHg 88%
    09:00 +9°C° 0 mm 1 mps 626 mmHg 82%
    10:00 +10°C° 0 mm 0 mps 627 mmHg 75%
    11:00 +11°C° 0 mm 0 mps 627 mmHg 68%
    12:00 +14°C° 0 mm 1 mps 627 mmHg 61%
    13:00 +15°C° 0 mm 1 mps 627 mmHg 54%
    14:00 +15°C° 0 mm 1 mps 627 mmHg 57%
    15:00 +14°C° 0 mm 1 mps 626 mmHg 60%
    16:00 +14°C° 0 mm 1 mps 626 mmHg 63%
    17:00 +11°C° 0 mm 1 mps 625 mmHg 73%
    18:00 +9°C° 0 mm 1 mps 624 mmHg 82%
    19:00 +7°C° 0 mm 1 mps 623 mmHg 92%
    20:00 +7°C° 0 mm 1 mps 623 mmHg 90%
    21:00 +8°C° 0 mm 1 mps 624 mmHg 89%
    22:00 +8°C° 0 mm 1 mps 624 mmHg 87%
    23:00 +8°C° 0.1 mm 1 mps 624 mmHg 89%

    25 September, Wednesday

    Time Temperature Precipitation Wind Pressure Humidity
    00:00 +8°C° 0.1 mm 1 mps 624 mmHg 91%
    01:00 +7°C° 0.1 mm 1 mps 623 mmHg 93%
    02:00 +6°C° 0.1 mm 0 mps 623 mmHg 93%
    03:00 +6°C° 0.1 mm 0 mps 623 mmHg 94%
    04:00 +6°C° 0.1 mm 0 mps 623 mmHg 94%
    05:00 +6°C° 0.3 mm 0 mps 623 mmHg 94%
    06:00 +6°C° 0.3 mm 0 mps 623 mmHg 93%
    07:00 +7°C° 0.3 mm 0 mps 623 mmHg 93%
    08:00 +7°C° 0.6 mm 0 mps 623 mmHg 94%
    09:00 +8°C° 0.6 mm 1 mps 623 mmHg 94%
    10:00 +8°C° 0.6 mm 1 mps 623 mmHg 95%
    11:00 +7°C° 1.2 mm 1 mps 623 mmHg 95%
    12:00 +7°C° 1.2 mm 1 mps 623 mmHg 96%
    13:00 +5°C° 1.2 mm 2 mps 622 mmHg 96%
    14:00 +4°C° 2.2 mm 2 mps 622 mmHg 96%
    15:00 +5°C° 2.2 mm 1 mps 622 mmHg 96%
    16:00 +5°C° 2.2 mm 1 mps 622 mmHg 96%
    17:00 +4°C° 1.4 mm 1 mps 623 mmHg 96%
    18:00 +4°C° 1.4 mm 1 mps 623 mmHg 97%
    19:00 +4°C° 1.4 mm 1 mps 623 mmHg 97%
    20:00 +4°C° 0.4 mm 1 mps 624 mmHg 97%
    21:00 +4°C° 0.4 mm 1 mps 624 mmHg 97%
    22:00 +4°C° 0.4 mm 1 mps 624 mmHg 96%
    23:00 +4°C° 0 mm 1 mps 624 mmHg 96%

    26 September, Thursday

    Time Temperature Precipitation Wind Pressure Humidity
    00:00 +4°C° 0 mm 1 mps 624 mmHg 95%
    01:00 +4°C° 0 mm 1 mps 624 mmHg 95%
    02:00 +4°C° 0 mm 1 mps 624 mmHg 95%
    03:00 +4°C° 0 mm 1 mps 624 mmHg 94%
    04:00 +4°C° 0 mm 1 mps 624 mmHg 94%
    05:00 +4°C° 0 mm 1 mps 625 mmHg 94%
    06:00 +4°C° 0 mm 1 mps 625 mmHg 93%
    07:00 +4°C° 0 mm 1 mps 625 mmHg 93%
    08:00 +5°C° 0 mm 1 mps 625 mmHg 89%
    09:00 +7°C° 0 mm 1 mps 626 mmHg 86%
    10:00 +8°C° 0 mm 1 mps 627 mmHg 83%
    11:00 +8°C° 0.3 mm 1 mps 626 mmHg 86%
    12:00 +7°C° 0.3 mm 1 mps 626 mmHg 89%
    13:00 +7°C° 0.3 mm 1 mps 626 mmHg 92%
    14:00 +7°C° 0.4 mm 1 mps 626 mmHg 93%
    15:00 +7°C° 0.4 mm 1 mps 626 mmHg 95%
    16:00 +6°C° 0.4 mm 0 mps 626 mmHg 96%
    17:00 +7°C° 0.4 mm 1 mps 627 mmHg 96%
    18:00 +7°C° 0.4 mm 1 mps 627 mmHg 96%
    19:00 +7°C° 0.4 mm 1 mps 627 mmHg 96%
    20:00 +7°C° 0.3 mm 1 mps 628 mmHg 96%
    21:00 +7°C° 0.3 mm 1 mps 628 mmHg 96%
    22:00 +7°C° 0.3 mm 1 mps 628 mmHg 95%
    23:00 +7°C° 0 mm 1 mps 628 mmHg 95%

    27 September, Friday

    Time Temperature Precipitation Wind Pressure Humidity
    00:00 +6°C° 0 mm 1 mps 628 mmHg 95%
    01:00 +6°C° 0 mm 1 mps 628 mmHg 94%
    02:00 +5°C° 0 mm 1 mps 628 mmHg 94%
    03:00 +5°C° 0 mm 1 mps 627 mmHg 94%
    04:00 +5°C° 0 mm 1 mps 627 mmHg 94%
    05:00 +5°C° 0 mm 1 mps 627 mmHg 93%
    06:00 +6°C° 0 mm 1 mps 628 mmHg 92%
    07:00 +7°C° 0 mm 1 mps 628 mmHg 92%
    08:00 +9°C° 0 mm 1 mps 628 mmHg 87%
    09:00 +11°C° 0 mm 1 mps 629 mmHg 82%
    10:00 +11°C° 0 mm 0 mps 630 mmHg 77%
    11:00 +12°C° 0 mm 0 mps 630 mmHg 71%
    12:00 +14°C° 0 mm 0 mps 630 mmHg 66%
    13:00 +16°C° 0 mm 1 mps 630 mmHg 61%
    14:00 +15°C° 0.1 mm 1 mps 630 mmHg 64%
    15:00 +15°C° 0.1 mm 1 mps 630 mmHg 68%
    16:00 +14°C° 0.1 mm 1 mps 629 mmHg 71%
    17:00 +13°C° 0.1 mm 1 mps 629 mmHg 76%
    18:00 +11°C° 0.1 mm 1 mps 629 mmHg 81%
    19:00 +10°C° 0.1 mm 1 mps 628 mmHg 86%
    20:00 +10°C° 0.2 mm 1 mps 628 mmHg 88%
    21:00 +9°C° 0.2 mm 1 mps 628 mmHg 89%
    22:00 +9°C° 0.2 mm 1 mps 628 mmHg 91%
    23:00 +9°C° 0 mm 1 mps 628 mmHg 91%
    Show more